Location: Kalberh�ni
(46.4610°N, 7.2453°E)
Time: 02:27:22
(UTC+00:00)

Cosmos 1503 Rocket - Pass Details

Date: 20 June 2021
Orbit: 752 x 791 km, 74.0° (Epoch: 25 July)

Event Time Altitude Azimuth Distance (km) Brightness Sun altitude
Rises 22:28:03 0° 334° (NNW) 3,300 8.9 -18.6°
Reaches altitude 10° 22:30:29 10° 330° (NNW) 2,366 7.7 -18.7°
Maximum altitude 22:35:44 55° 254° (WSW) 945 4.4 -18.9°
Enters shadow 22:37:57 33° 193° (SSW) 1,315 4.7 -19.0°
